EW7602 Weather Reports


Display with metric or nautical units.
time (UTC)temp
F
wind
direction
speed
MPH
gust
MPH
rain 1hr
in
rain 24hr
in
rain mn
in
humidity
%
barometer
mb
20260507140001 46 250 3.0 9.0 0.01 0.34 0.01 66 1009.7
20260507135243 46 316 3.0 9.0 0.01 0.35 0.01 69 1009.8
20260507134740 45 315 3.0 9.0 0.01 0.35 0.01 70 1009.9
20260507134237 45 311 3.0 9.0 0.01 0.35 0.01 68 1009.8
20260507134225 45 272 2.0 7.0 0.01 0.35 0.01 70 1009.8
20260507133238 45 230 2.0 7.0 0.01 0.35 0.01 73 1009.9
20260507132736 45 336 3.0 8.0 0.01 0.35 0.01 74 1009.9
20260507132237 45 240 3.0 8.0 0.01 0.35 0.01 77 1009.9
20260507131736 45 319 3.0 8.0 0.01 0.35 0.01 78 1009.8
20260507131237 44 208 3.0 9.0 0.01 0.35 0.01 79 1009.7
20260507131003 44 223 3.0 9.0 0.01 0.36 0.01 80 1009.7
20260507130236 44 287 2.0 7.0 0.01 0.36 0.01 86 1009.7
20260507125737 44 260 1.0 7.0 0.00 0.35 0.00 89 1009.9
20260507125230 43 274 1.0 3.0 0.00 0.35 0.00 92 1009.8
20260507124725 43 356 1.0 3.0 0.00 0.36 0.00 93 1009.6
20260507124219 43 353 0.0 3.0 0.00 0.37 0.00 95 1009.6
20260507123714 43 207 1.0 6.0 0.00 0.38 0.00 95 1009.6
20260507123208 43 264 2.0 6.0 0.00 0.38 0.00 95 1009.7
20260507122701 43 243 2.0 8.0 0.00 0.38 0.00 95 1009.7
20260507122155 43 236 2.0 8.0 0.00 0.39 0.00 96 1009.6
20260507121649 43 238 1.0 4.0 0.00 0.40 0.00 96 1009.6
20260507121142 43 281 1.0 4.0 0.00 0.40 0.00 97 1009.5
20260507120637 43 212 1.0 4.0 0.00 0.41 0.00 97 1009.5
20260507120130 43 249 1.0 4.0 0.00 0.41 0.00 97 1009.5
20260507115624 43 289 0.0 3.0 0.00 0.42 0.00 97 1009.5
20260507115119 42 307 1.0 2.0 0.00 0.42 0.00 97 1009.5
20260507114613 42 252 0.0 2.0 0.00 0.42 0.00 97 1009.2
20260507114334 42 227 0.0 1.0 0.00 0.43 0.00 97 1009.2
20260507113559 42 153 0.0 0.0 0.00 0.44 0.00 97 1009.3
20260507113055 42 153 0.0 0.0 0.00 0.44 0.00 97 1009.2
20260507112805 42 194 0.0 0.0 0.00 0.45 0.00 97 1009.1
20260507112043 42 171 0.0 0.0 0.00 0.46 0.00 97 1009.1
20260507111536 42 171 0.0 0.0 0.00 0.47 0.00 97 1009.2
20260507111030 42 171 0.0 3.0 0.00 0.47 0.00 97 1009.3
20260507110523 42 171 0.0 3.0 0.00 0.47 0.00 97 1009.3
20260507110019 42 204 0.0 0.0 0.00 0.47 0.00 97 1009.3
20260507105512 42 221 0.0 0.0 0.00 0.47 0.00 97 1009.4
20260507105006 42 221 0.0 0.0 0.00 0.48 0.00 97 1009.2
20260507104459 41 221 0.0 0.0 0.00 0.48 0.00 97 1009.2
20260507103954 41 221 0.0 0.0 0.00 0.48 0.00 97 1009.1
20260507103204 41 221 0.0 0.0 0.00 0.48 0.00 97 1008.8
20260507102436 41 221 0.0 0.0 0.00 0.48 0.00 97 1008.9
20260507101929 41 221 0.0 0.0 0.00 0.49 0.00 97 1008.8
20260507101425 41 221 0.0 0.0 0.00 0.49 0.00 97 1008.8
20260507100919 41 221 0.0 0.0 0.00 0.49 0.00 97 1008.7
20260507100412 41 221 0.0 0.0 0.00 0.49 0.00 97 1008.8
20260507095906 41 221 0.0 0.0 0.00 0.49 0.00 97 1008.8
20260507095629 41 221 0.0 0.0 0.00 0.49 0.00 97 1008.9
20260507095113 41 221 0.0 0.0 0.00 0.51 0.00 97 1008.9
20260507094348 41 221 0.0 0.0 0.00 0.52 0.00 97 1008.8
20260507093842 41 221 0.0 0.0 0.00 0.52 0.00 97 1008.8
20260507093337 41 221 0.0 0.0 0.00 0.52 0.00 97 1008.7
20260507092831 41 221 0.0 0.0 0.00 0.53 0.00 97 1008.7
20260507092546 41 221 0.0 0.0 0.00 0.53 0.00 97 1008.6
20260507091818 41 221 0.0 0.0 0.00 0.53 0.00 97 1008.9
20260507091312 41 221 0.0 0.0 0.00 0.55 0.00 97 1008.9
20260507090807 41 221 0.0 0.0 0.00 0.55 0.00 97 1008.8
20260507090306 41 221 0.0 0.0 0.00 0.55 0.00 97 1008.9
20260507090247 41 221 0.0 0.0 0.00 0.55 0.00 97 1009.0
20260507085531 41 221 0.0 0.0 0.00 0.56 0.00 97 1008.9
20260507085028 41 221 0.0 0.0 0.00 0.56 0.00 97 1008.9
20260507084754 41 221 0.0 0.0 0.00 0.56 0.00 97 1008.9
20260507083800 41 221 0.0 0.0 0.00 0.56 0.00 97 1009.0
20260507083300 41 221 0.0 0.0 0.00 0.56 0.00 97 1009.0
20260507082759 41 221 0.0 0.0 0.00 0.57 0.00 97 1009.2
20260507082256 41 221 0.0 0.0 0.00 0.57 0.00 97 1009.2
20260507081756 41 221 0.0 0.0 0.00 0.57 0.00 97 1009.2
20260507081255 40 221 0.0 0.0 0.00 0.58 0.00 97 1009.2
20260507081022 40 221 0.0 0.0 0.00 0.58 0.00 97 1009.3
20260507080255 40 221 0.0 0.0 0.00 0.58 0.00 97 1009.3
20260507075752 40 221 0.0 0.0 0.00 0.58 0.00 97 1009.2
20260507075738 40 221 0.0 0.0 0.00 0.60 0.00 97 1009.2
20260507074752 40 221 0.0 0.0 0.00 0.61 0.00 97 1009.4
20260507074253 40 221 0.0 0.0 0.00 0.61 0.00 96 1009.4
20260507073752 40 221 0.0 0.0 0.00 0.61 0.00 97 1009.5
20260507073251 40 221 0.0 0.0 0.00 0.61 0.00 96 1009.5
20260507072753 40 221 0.0 0.0 0.00 0.61 0.00 96 1009.5
20260507072525 40 221 1.0 3.0 0.00 0.61 0.00 96 1009.4
20260507072018 40 221 1.0 3.0 0.00 0.61 0.00 96 1009.3
20260507071510 40 219 1.0 4.0 0.00 0.61 0.00 96 1009.2
20260507070746 40 164 1.0 4.0 0.00 0.62 0.00 96 1008.9
20260507070246 40 271 0.0 0.0 0.00 0.62 0.00 96 1008.9
20260507065744 40 76 0.0 0.0 0.00 0.63 0.00 96 1008.8
20260507065501 40 76 0.0 0.0 0.00 0.63 0.00 96 1008.7
20260507064747 40 76 0.0 0.0 0.00 0.63 0.00 96 1008.6
20260507064503 40 281 0.0 0.0 0.00 0.63 0.00 96 1008.6
20260507063741 40 281 0.0 0.0 0.00 0.64 0.00 96 1008.6
20260507063241 40 281 0.0 0.0 0.00 0.64 0.00 96 1008.6
20260507062739 40 281 0.0 0.0 0.00 0.64 0.00 96 1008.7
20260507062503 40 281 0.0 0.0 0.00 0.64 0.00 96 1008.7
20260507061738 40 281 0.0 0.0 0.00 0.64 0.00 96 1008.7
20260507061236 40 281 0.0 0.0 0.00 0.64 0.00 96 1008.9
20260507060954 40 281 0.0 0.0 0.00 0.64 0.00 96 1008.9
20260507060235 40 281 0.0 0.0 0.00 0.64 0.00 96 1009.2
20260507055733 40 281 0.0 0.0 0.00 0.65 0.00 96 1009.1
20260507055231 40 281 0.0 0.0 0.00 0.65 0.00 96 1009.2
20260507054953 40 281 0.0 0.0 0.00 0.65 0.00 96 1009.1
20260507054224 40 281 0.0 0.0 0.00 0.65 0.00 95 1009.1
20260507053718 40 281 0.0 0.0 0.00 0.67 0.00 95 1009.2
20260507053440 41 281 0.0 0.0 0.00 0.67 0.00 96 1009.2
20260507052706 41 281 0.0 0.0 0.00 0.67 0.00 96 1009.3
20260507052159 40 281 0.0 0.0 0.00 0.67 0.00 95 1009.4
20260507051652 40 281 0.0 0.0 0.00 0.68 0.00 95 1009.3
20260507051147 40 281 0.0 0.0 0.00 0.68 0.00 95 1009.4
20260507050641 41 281 0.0 0.0 0.00 0.69 0.00 95 1009.4
20260507050135 41 281 0.0 0.0 0.00 0.70 0.00 95 1009.5
20260507045628 42 281 0.0 0.0 0.00 0.70 0.00 95 1009.7
20260507045342 42 281 0.0 0.0 0.00 0.71 0.00 95 1009.8
20260507044844 42 281 0.0 0.0 0.00 0.72 0.00 95 1009.9
20260507044111 42 281 0.0 0.0 0.00 0.73 0.00 95 1009.8
20260507043826 42 281 0.0 0.0 0.00 0.73 0.00 94 1009.8
20260507043100 42 281 0.0 0.0 0.00 0.74 0.00 94 1009.8
20260507042815 43 281 0.0 0.0 0.00 0.74 0.00 95 1009.8
20260507042047 43 281 0.0 0.0 0.00 0.74 0.00 95 1009.8
20260507041540 43 281 0.0 0.0 0.00 0.74 0.00 94 1009.7
20260507041035 43 281 0.0 0.0 0.00 0.75 0.00 94 1009.8
20260507040528 44 281 0.0 0.0 0.00 0.75 0.00 95 1009.8
20260507040023 44 281 0.0 0.0 0.00 0.75 0.00 95 1009.8
20260507035517 43 281 0.0 0.0 0.00 0.76 0.75 94 1009.8
20260507035009 43 281 0.0 0.0 0.00 0.76 0.75 93 1009.8
20260507034503 44 281 0.0 0.0 0.00 0.76 0.75 94 1009.8
20260507033958 44 281 0.0 0.0 0.00 0.77 0.75 94 1009.8
20260507033452 45 281 0.0 0.0 0.00 0.77 0.75 95 1009.9
20260507033214 45 281 0.0 0.0 0.00 0.77 0.75 95 1009.9
20260507032440 46 281 0.0 0.0 0.00 0.78 0.75 95 1009.9
20260507031935 46 281 0.0 0.0 0.00 0.81 0.75 96 1009.9
20260507031655 47 281 0.0 0.0 0.00 0.82 0.75 97 1010.1
20260507031142 47 281 0.0 0.0 0.00 0.83 0.75 97 1009.9
20260507030416 43 281 0.0 0.0 0.00 0.83 0.75 95 1010.2
20260507030127 43 281 0.0 0.0 0.00 0.84 0.75 95 1010.1
20260507025635 43 281 0.0 0.0 0.00 0.84 0.75 96 1010.1
20260507024857 43 281 0.0 0.0 0.00 0.84 0.75 95 1010.1
20260507024609 43 281 0.0 0.0 0.00 0.84 0.75 96 1010.1
20260507023846 44 281 0.0 0.0 0.00 0.84 0.75 96 1010.1
20260507023340 43 281 0.0 0.0 0.00 0.84 0.75 96 1009.9
20260507022835 43 281 0.0 0.0 0.00 0.84 0.75 96 1010.1
20260507022328 43 281 0.0 0.0 0.00 0.84 0.75 96 1010.1
20260507021822 43 281 0.0 0.0 0.00 0.84 0.75 95 1009.9
20260507021318 43 281 0.0 0.0 0.00 0.84 0.75 95 1010.1
20260507020811 43 281 0.0 0.0 0.00 0.84 0.75 96 1010.1
20260507020303 43 281 0.0 0.0 0.00 0.84 0.75 96 1009.8
20260507015759 43 281 0.0 0.0 0.00 0.84 0.75 96 1009.8
20260507015253 43 282 0.0 0.0 0.00 0.84 0.75 96 1010.1
20260507014746 43 281 0.0 1.0 0.00 0.84 0.75 96 1010.3
20260507014502 43 281 0.0 1.0 0.00 0.84 0.75 96 1010.3
20260507013734 43 281 0.0 2.0 0.00 0.84 0.75 95 1010.4
20260507013446 43 339 0.0 2.0 0.00 0.84 0.75 95 1010.1
20260507012723 43 54 0.0 0.0 0.00 0.84 0.75 96 1010.2
20260507012218 43 215 0.0 0.0 0.00 0.84 0.75 96 1010.2
20260507011710 43 215 0.0 0.0 0.00 0.84 0.75 95 1010.2
20260507011208 43 215 0.0 0.0 0.01 0.84 0.75 96 1010.3
20260507010708 43 215 0.0 0.0 0.01 0.84 0.75 96 1010.2
20260507010426 43 215 0.0 0.0 0.01 0.84 0.75 96 1010.2
20260507005704 43 215 0.0 0.0 0.01 0.84 0.75 95 1010.1
20260507005201 43 215 0.0 0.0 0.01 0.85 0.75 95 1009.9
20260507004702 43 215 0.0 0.0 0.01 0.86 0.75 95 1009.9
20260507004200 43 215 0.0 0.0 0.01 0.86 0.75 95 1009.8
20260507003701 43 215 0.0 0.0 0.01 0.86 0.75 95 1009.8
20260507003158 44 233 0.0 0.0 0.01 0.87 0.75 95 1009.8
20260507002658 44 233 0.0 0.0 0.01 0.87 0.75 95 1009.7
20260507002154 44 233 0.0 0.0 0.01 0.87 0.75 95 1009.7
20260507001654 43 233 0.0 0.0 0.01 0.87 0.75 95 1009.6
20260507001152 43 233 0.0 0.0 0.00 0.86 0.75 95 1009.5
20260507000650 43 233 0.0 0.0 0.00 0.86 0.74 95 1009.4
20260507000150 43 233 0.0 0.0 0.00 0.86 0.74 95 1009.3
20260506235917 43 275 0.0 1.0 0.00 0.86 0.74 94 1009.2
20260506235144 44 278 0.0 1.0 0.00 0.86 0.74 94 1009.1
20260506234643 44 55 0.0 1.0 0.00 0.86 0.74 94 1008.9
20260506234143 44 65 0.0 0.0 0.00 0.86 0.74 94 1008.8
20260506233643 44 65 0.0 0.0 0.00 0.86 0.74 94 1008.8
20260506233140 44 65 0.0 0.0 0.00 0.86 0.74 94 1008.8
20260506232638 45 65 0.0 0.0 0.00 0.86 0.74 94 1008.8
20260506232403 45 65 0.0 1.0 0.01 0.86 0.74 94 1008.7
20260506231855 45 65 0.0 1.0 0.01 0.86 0.74 95 1008.6
20260506231135 45 65 0.0 0.0 0.01 0.86 0.74 96 1008.6
20260506230636 44 74 0.0 2.0 0.01 0.86 0.74 94 1008.5
20260506230136 44 74 0.0 2.0 0.01 0.86 0.74 94 1008.6
20260506225636 45 10 0.0 1.0 0.01 0.86 0.74 94 1008.5
20260506225131 45 19 0.0 1.0 0.01 0.86 0.74 93 1008.5
20260506224631 46 334 0.0 1.0 0.01 0.86 0.74 94 1008.9
20260506224133 46 319 1.0 3.0 0.01 0.86 0.74 96 1008.8
20260506223633 45 351 0.0 3.0 0.01 0.86 0.74 95 1008.9
20260506223131 45 341 0.0 2.0 0.01 0.86 0.74 95 1008.7
20260506223122 45 57 0.0 2.0 0.01 0.86 0.74 95 1008.7
20260506222134 44 37 1.0 5.0 0.00 0.85 0.73 95 1008.7
20260506221631 44 36 1.0 5.0 0.00 0.85 0.73 95 1008.7
20260506221127 43 333 2.0 6.0 0.00 0.85 0.73 94 1008.8
20260506220630 43 345 2.0 5.0 0.00 0.85 0.73 94 1009.0
20260506220348 44 323 1.0 5.0 0.00 0.85 0.73 95 1008.8
20260506215617 44 238 1.0 6.0 0.00 0.85 0.73 95 1008.8
20260506215601 44 296 1.0 6.0 0.01 0.85 0.73 95 1008.7
20260506214611 44 6 1.0 4.0 0.01 0.85 0.73 95 1008.6
20260506214110 44 18 1.0 5.0 0.01 0.85 0.73 95 1008.6
20260506213609 44 329 1.0 6.0 0.01 0.85 0.73 95 1008.6
20260506213110 44 349 1.0 6.0 0.01 0.85 0.73 95 1008.6
20260506212610 44 326 1.0 5.0 0.02 0.85 0.73 95 1008.5
20260506212109 44 326 1.0 4.0 0.02 0.85 0.73 95 1008.5
20260506211609 44 349 1.0 5.0 0.02 0.85 0.73 95 1008.4
20260506211110 44 329 1.0 7.0 0.03 0.85 0.73 95 1008.3
20260506210611 44 328 1.0 7.0 0.03 0.85 0.73 95 1008.3
20260506210111 44 28 1.0 5.0 0.03 0.85 0.73 95 1008.4
20260506205834 44 49 1.0 5.0 0.03 0.85 0.73 95 1008.5
20260506205109 44 25 1.0 4.0 0.02 0.84 0.72 95 1008.6
20260506204836 44 12 1.0 5.0 0.02 0.84 0.72 95 1008.7
20260506204112 44 293 1.0 6.0 0.02 0.84 0.72 95 1008.6
20260506203612 44 7 1.0 6.0 0.02 0.84 0.72 95 1008.6
20260506203329 44 37 1.0 7.0 0.02 0.85 0.72 95 1008.5
20260506202601 44 20 1.0 7.0 0.01 0.85 0.72 95 1008.6
20260506202103 44 291 1.0 7.0 0.02 0.86 0.71 95 1008.5
20260506201600 44 326 1.0 3.0 0.02 0.87 0.71 95 1008.5
20260506201100 44 310 0.0 3.0 0.01 0.88 0.70 95 1008.5
20260506200817 44 288 1.0 2.0 0.01 0.88 0.70 95 1008.5
20260506200058 44 288 1.0 4.0 0.01 0.88 0.70 95 1008.5
20260506195556 44 296 1.0 4.0 0.01 0.88 0.70 94 1008.4
20260506195059 44 290 0.0 2.0 0.01 0.88 0.70 95 1008.3
20260506194557 44 351 0.0 2.0 0.02 0.88 0.70 95 1008.3
20260506194053 44 340 1.0 3.0 0.02 0.88 0.70 95 1008.3
20260506193553 44 298 1.0 6.0 0.02 0.88 0.70 95 1008.2
20260506193054 44 346 1.0 6.0 0.02 0.88 0.70 95 1008.2
20260506192813 44 350 1.0 4.0 0.02 0.89 0.70 95 1008.0
20260506192054 44 266 1.0 4.0 0.01 0.92 0.69 95 1008.2
20260506191551 44 324 2.0 5.0 0.01 0.92 0.69 95 1008.0
20260506191049 44 49 1.0 5.0 0.01 0.92 0.69 95 1007.9
20260506190809 44 76 0.0 3.0 0.01 0.92 0.69 95 1007.9
20260506190049 44 329 1.0 2.0 0.02 0.93 0.69 95 1008.2
20260506185547 44 15 0.0 4.0 0.02 0.93 0.69 95 1008.2
20260506185041 44 17 1.0 4.0 0.02 0.93 0.69 95 1008.3
20260506184535 43 342 1.0 3.0 0.01 0.92 0.68 95 1008.5
20260506184029 43 331 1.0 4.0 0.02 0.92 0.68 95 1008.5
20260506183522 44 320 0.0 4.0 0.02 0.92 0.68 95 1008.6
20260506183018 44 297 1.0 3.0 0.02 0.92 0.68 95 1008.6
20260506182512 43 326 1.0 5.0 0.03 0.92 0.68 95 1008.7
20260506182007 44 289 0.0 5.0 0.04 0.92 0.68 95 1008.7
20260506181500 44 299 0.0 1.0 0.04 0.92 0.68 95 1008.9
20260506180959 43 316 0.0 2.0 0.04 0.92 0.68 95 1008.9
20260506180458 44 345 0.0 2.0 0.04 0.91 0.67 95 1008.9
20260506180219 43 321 0.0 3.0 0.04 0.91 0.67 95 1009.0
20260506175457 43 30 0.0 3.0 0.04 0.91 0.67 95 1009.0
20260506175223 44 36 0.0 3.0 0.05 0.91 0.67 95 1009.0
20260506174457 43 302 0.0 0.0 0.05 0.91 0.67 95 1009.2
20260506173956 43 307 0.0 0.0 0.05 0.90 0.66 95 1009.1
20260506173453 43 306 0.0 2.0 0.06 0.90 0.66 95 1009.0
20260506172953 43 273 0.0 3.0 0.05 0.89 0.66 95 1009.1
20260506172449 43 323 0.0 3.0 0.06 0.89 0.65 95 1009.1
20260506171947 43 261 0.0 3.0 0.06 0.88 0.64 95 1009.3
20260506171449 43 278 1.0 3.0 0.07 0.88 0.64 95 1009.1
20260506171210 43 23 1.0 5.0 0.07 0.88 0.64 95 1009.0
20260506170446 43 23 1.0 5.0 0.07 0.87 0.63 95 1009.1
20260506170435 43 323 0.0 2.0 0.07 0.87 0.63 95 1009.1
20260506165444 43 336 0.0 5.0 0.08 0.87 0.63 95 1009.3
20260506164942 43 323 1.0 5.0 0.08 0.86 0.62 95 1009.3
20260506164441 43 219 1.0 5.0 0.08 0.86 0.62 95 1009.2
20260506163937 43 18 1.0 4.0 0.08 0.85 0.61 95 1009.3
20260506163437 43 62 0.0 3.0 0.08 0.84 0.61 95 1009.4
20260506162936 43 13 0.0 3.0 0.09 0.84 0.60 95 1009.4
20260506162436 43 328 1.0 4.0 0.09 0.83 0.59 95 1009.5
20260506161937 43 295 0.0 4.0 0.08 0.82 0.58 95 1009.4
20260506161435 43 291 0.0 3.0 0.08 0.81 0.58 95 1009.5
20260506160935 43 50 0.0 3.0 0.09 0.81 0.57 95 1009.5
20260506160434 43 37 1.0 8.0 0.08 0.80 0.56 95 1009.5
20260506155935 43 288 2.0 8.0 0.08 0.80 0.56 95 1009.6
20260506155436 43 78 1.0 6.0 0.08 0.79 0.55 95 1009.7
20260506154934 43 46 1.0 6.0 0.08 0.78 0.55 95 1009.8
20260506154916 43 359 2.0 5.0 0.08 0.77 0.53 95 1009.7
20260506154527 43 13 1.0 5.0 0.08 0.78 0.54 95 1009.8
20260506153656 43 314 1.0 4.0 0.07 0.76 0.52 95 1009.6
20260506152935 43 321 1.0 3.0 0.06 0.75 0.51 95 1009.7
20260506152435 44 291 0.0 2.0 0.06 0.74 0.50 95 1009.8
20260506151933 44 311 0.0 2.0 0.07 0.74 0.50 95 1009.5
20260506151433 44 267 1.0 4.0 0.06 0.73 0.49 95 1009.5
20260506150933 44 297 1.0 4.0 0.06 0.72 0.48 95 1009.5
20260506150433 44 284 1.0 3.0 0.06 0.72 0.48 95 1009.4
20260506150143 44 35 0.0 2.0 0.05 0.71 0.47 95 1009.3
20260506145417 44 315 0.0 2.0 0.06 0.71 0.47 95 1009.3
20260506144912 43 238 1.0 3.0 0.05 0.70 0.46 95 1009.4
20260506144406 43 339 1.0 3.0 0.05 0.70 0.46 95 1009.4
20260506143900 43 338 2.0 7.0 0.04 0.69 0.45 95 1009.4
20260506143354 43 342 1.0 7.0 0.04 0.69 0.45 94 1009.4
20260506143109 43 27 1.0 5.0 0.03 0.68 0.45 94 1009.5
20260506142342 43 27 1.0 4.0 0.03 0.68 0.44 94 1009.7
20260506141836 43 5 0.0 2.0 0.02 0.67 0.43 94 1009.8
20260506141332 43 354 1.0 4.0 0.02 0.67 0.43 94 1009.8
20260506140823 43 312 2.0 6.0 0.02 0.66 0.42 94 1009.6
20260506140318 43 13 2.0 6.0 0.02 0.66 0.42 94 1009.4